Regional Weather Roundup
Issued by NWS

Home | Current Version | Previous Version | Graphics & Text | Print | Product List | Glossary On
Versions: 1 2 3 4 5 6 7 8 9 10 11 12 13 14 15 16 17 18 19 20 21 22 23 24 25 26 27 28 29 30 31 32 33 34 35 36 37 38 39 40 41 42 43 44 45 46 47 48 49 50
000
ASUS43 KDMX 051908
RWRIA

WEATHER ROUNDUP FOR IOWA
NATIONAL WEATHER SERVICE DES MOINES IA
200 PM CDT THU MAY 05 2016

NOTE: "FAIR" INDICATES FEW OR NO CLOUDS BELOW 12,000 FEET WITH NO
SIGNIFICANT WEATHER AND/OR OBSTRUCTIONS TO VISIBILITY.

* - THESE STATIONS ARE NOT NWS STATIONS...THUS NOT UNDER NWS
QUALITY CONTROL.  THEY ALSO DO NOT REPORT WEATHER SUCH
AS PRECIPITATION OR FOG.

IAZ001>003-012>014-020>022-031>034-043>046-052000-
   NORTHWEST IOWA

CITY           SKY/WX    TMP DP  RH WIND       PRES   REMARKS
CARROLL *      SUNNY     70  32  24 CALM      30.07F
CHEROKEE *     SUNNY     72  39  30 S5        30.05F
DENISON *      SUNNY     72  34  25 S6        30.04F
LE MARS *      SUNNY     73  39  29 SE8       30.04F
ORANGE CITY *  SUNNY     73  39  29 S3        30.04F
SHELDON *      SUNNY     73  36  25 SW9       30.03S
SIOUX CITY     SUNNY     76  47  35 S9        30.03F
SPENCER        SUNNY     72  34  24 VRB5      30.04F
STORM LAKE *     N/A     72  34  25 SW5       30.06F
$$

IAZ055>058-069>071-079>083-090>094-052000-
   SOUTHWEST IOWA

CITY           SKY/WX    TMP DP  RH WIND       PRES   REMARKS
ATLANTIC *     SUNNY     70  34  26 VRB3      30.08S
AUDUBON *      SUNNY     72  32  23 S5        30.08F
CLARINDA *       N/A     70  36  28 MISG      30.10F
COUNCIL BLFS * SUNNY     72  39  30 W3        30.07F
CRESTON *      SUNNY     66  34  30 VRB5      30.09F
HARLAN  *      SUNNY     72  34  25 VRB6      30.10F
LAMONI         SUNNY     66  36  32 CALM      30.08F
RED OAK *      SUNNY     70  34  26 CALM      30.08F
SHENANDOAH *   SUNNY     72  37  28 CALM      30.08F
$$

IAZ047>049-059>061-072>074-084-052000-
   CENTRAL IOWA

CITY           SKY/WX    TMP DP  RH WIND       PRES   REMARKS
AMES           SUNNY     68  30  24 CALM      30.07F
ANKENY *       SUNNY     66  34  30 W6        30.08F
BOONE *        MOSUNNY   66  32  28 CALM      30.06F
CHARITON *     PTSUNNY   64  32  29 VRB5      30.09S
DES MOINES     MOSUNNY   66  33  29 CALM      30.08F
GRINNELL*      MOSUNNY   66  27  22 NW6       30.07F
KNOXVILLE *    CLOUDY    63  30  29 N5        30.08S
MARSHALLTOWN   MOSUNNY   66  33  29 N6        30.06F
NEWTON *       SUNNY     66  28  24 N8G17     30.07S
PELLA *        SUNNY     66  28  24 N7        30.09S
PERRY *          N/A     68  32  26 CALM      30.07F
$$

IAZ004>006-015-016-023>025-035-036-052000-
   NORTH CENTRAL IOWA

CITY           SKY/WX    TMP DP  RH WIND       PRES   REMARKS
ALGONA *       SUNNY     70  34  26 VRB7G14   30.05F
CLARION *      MOSUNNY   70  30  23 SW10      30.06S
ESTHERVILLE    SUNNY     70  36  28 SW8       30.03F
FORT DODGE *   MOSUNNY   70  37  30 SW5       30.07F
MASON CITY     SUNNY     69  32  25 W8        30.05F
FOREST CITY *  SUNNY     68  32  26 SW7       30.03F
WEBSTER CITY * MOSUNNY   68  28  22 CALM      30.04F
IOWA FALLS *     N/A     68  30  24 S3        30.07F
$$

IAZ007>011-017>019-026>030-037>042-050>054-066-052000-
   NORTHEAST IOWA

CITY           SKY/WX    TMP DP  RH WIND       PRES   REMARKS
CEDAR RAPIDS   SUNNY     64  40  41 VRB6      30.05F
CHARLES CITY * SUNNY     64  28  25 S5        30.06S
CLINTON *      SUNNY     62  40  44 NW9       30.04F
DECORAH *      SUNNY     63  28  27 NW7G14    30.04S
DUBUQUE        SUNNY     62  41  46 MISG      30.04F
MONTICELLO *   SUNNY     64  37  36 NW7       30.04F
OELWEIN *      SUNNY     66  32  28 NW10G18   30.04F
WATERLOO       SUNNY     66  33  29 VRB3      30.05F
$$

IAZ064-065-067-068-078-052000-
   EAST CENTRAL IOWA

CITY           SKY/WX    TMP DP  RH WIND       PRES   REMARKS
DAVENPORT      SUNNY     63  37  38 N6        30.04F
IOWA CITY      SUNNY     63  37  38 CALM      30.06F
MT. PLEASANT * SUNNY     66  39  37 N8        30.06F
MUSCATINE *    SUNNY     64  39  39 N8G15     30.05F
QUAD CITIES    SUNNY     64  39  39 NW10      30.03F
$$

IAZ062-063-075>077-085>089-095>099-052000-
   SOUTHEAST IOWA

CITY           SKY/WX    TMP DP  RH WIND       PRES   REMARKS
BURLINGTON     SUNNY     63  41  44 N12       30.05S
FAIRFIELD *    SUNNY     63  36  36 N10       30.06F
FORT MADISON * SUNNY     63  39  42 NW8G16    30.06F
KEOKUK *       SUNNY     63  41  45 NE9       30.05F
OSKALOOSA *      N/A     66  28  24 N13       30.07S
OTTUMWA        SUNNY     65  33  30 N10       30.07S
WASHINGTON *   SUNNY     64  37  36 VRB3G15   30.07F
$$

ABBREVIATIONS USED IN REMARKS
   TC - TEMPERATURES IN CELSIUS
  WCI - WIND CHILL INDEX
   HX - HEAT INDEX
  VSB - VISIBILITY
$$





USA.gov is the U.S. government's official web portal to all federal, state and local government web resources and services.